Portada
METAR-TAF:

METAR-TAF

Aeropuertos :

Cascaes, Portugal

latitud: 38-43-32N, longitud: 009-21-19W, altitud: 99 m

Observación

El informe se hizo hace 22 minutos, a las 18:00 UTC
Viento 12 kt del norte
Temperatura 19°C
Humedad 64%
Presión 1019 hPa
Visibilidad 10 km o más
Escasas nubes a una altura de 1800 ft

METAR: LPCS 231800Z 01012KT 9999 FEW018 19/12 Q1019

Hora: 19:22 (18:22 UTC)


TAF: falta

Observaciones y pronósticos meteorológicos de más de 4000 aeropuertos (mensajes METAR y TAF).

Los puntos amarillos y rojos representan las estaciones disponibles.

Ponga el ratón en el punto deseado para ver el nombre de la estación.

Haga clic para ver las observaciones y los pronósticos meteorológicos.

Para cambiar el mapa : haga clic en los botones verdes con una cruz de color negro para hacer un zoom, en el botón verde con un guión para alejar o en las flechas verdes para mapas adyacentes.


METAR-TAF: